Regional Weather Roundup
Issued by NWS Upton, NY

Current Version | Previous Version | Text Only | Print | Product List | Glossary On
Versions: 1 2 3 4 5 6 7 8 9 10 11 12 13 14 15 16 17 18 19 20 21 22 23 24 25 26 27 28 29 30 31 32 33 34 35 36 37 38 39 40 41 42 43 44 45 46 47 48 49 50
000
ASUS41 KOKX 260408
RWROKX

REGIONAL WEATHER ROUNDUP
NATIONAL WEATHER SERVICE NEW YORK NY
1200 AM EDT SUN MAR 26 2017

NOTE: "FAIR" INDICATES FEW OR NO CLOUDS BELOW 12,000 FEET WITH NO
SIGNIFICANT WEATHER AND/OR OBSTRUCTIONS TO VISIBILITY.

NYZ071-072-176-178-NJZ106-104-260500-
NEW YORK CITY METRO AREA

CITY           SKY/WX    TMP DP  RH WIND       PRES   REMARKS
Central Park   CLOUDY    43  36  76 E9        30.42R
Wall St Helipt CLOUDY    45  37  76 NE14      30.41R
LaGuardia APRT CLOUDY    44  36  73 NE12      30.40R
Kennedy INTL   CLOUDY    44  39  82 NE12      30.40R
Breezy Point     N/A     41 N/A N/A E6          N/A
Newark/Liberty CLOUDY    45  39  79 E9        30.39R
Teterboro      CLOUDY    43  38  82 N3        30.39R
$$

NYZ177-179-078>081-260500-
LONG ISLAND NEW YORK

CITY           SKY/WX    TMP DP  RH WIND       PRES   REMARKS
Jones Beach      N/A     41 N/A N/A E7          N/A
Matinecock PT  NOT AVBL
Farmingdale    CLOUDY    41  37  86 NE9       30.40R
MacArthur/ISP  CLOUDY    41  38  89 NE8       30.39R
Shirley        CLOUDY    40  38  93 N5        30.41R
Westhampton    CLOUDY    41  35  79 NE8       30.42R
East Hampton   CLOUDY    39  35  83 NE8       30.40S WCI  34
Montauk          N/A     40  36  86 NE3       30.42R
$$

NYZ052-065-067-260500-
HUDSON VALLEY

CITY           SKY/WX    TMP DP  RH WIND       PRES   REMARKS
White Plains   CLOUDY    41  36  82 NE8       30.38R
Newburgh       CLOUDY    36  34  93 E7        30.42R WCI  30
Montgomery     CLOUDY    36  32  85 E7        30.40R WCI  30
Poughkeepsie   CLOUDY    35  32  88 NE6       30.42S WCI  30
Albany         CLOUDY    32  23  69 N5        30.47R WCI  27
$$

NJZ001-105-106-008-010-013-015-019>022-104-260500-
NEW JERSEY

CITY           SKY/WX    TMP DP  RH WIND       PRES   REMARKS
Newark/Liberty CLOUDY    45  39  79 E9        30.39R
Teterboro      CLOUDY    43  38  82 N3        30.39R
Caldwell       CLOUDY    42  37  82 NE6       30.40R
Somerville     CLOUDY    44  39  82 NE7       30.36R
Linden         CLOUDY    45  38  77 E9        30.40R
Sussex         CLOUDY    37  33  85 NE9       30.39S WCI  30
Andover          N/A     37  33  85 NE7       30.38R WCI  32
Trenton        CLOUDY    44  38  79 E12       30.36R
Millville      CLOUDY    48  42  80 NE14      30.30R
Atlantic City  CLOUDY    45  39  79 NE14G25   30.32S
Wrightstown    MOCLDY    42  39  87 NE10      30.33S
Toms River     MOCLDY    42  40  92 E7        30.37S
Belmar         CLOUDY    42  38  85 E12       30.38R
$$

PAZ047>061-062-071-260500-
EASTERN PENNSYLVANIA

CITY           SKY/WX    TMP DP  RH WIND       PRES   REMARKS
Philadelphia   PTCLDY    44  39  82 E13       30.35R
Allentown      CLOUDY    43  35  73 NE16G22   30.36R
Scranton       CLOUDY    42  41  96 NE7       30.32S
$$

CTZ002-004>006-009-010-012-RIZ004-006-007-MAZ004-011-015-260500-
SOUTHERN NEW ENGLAND
 IN CT

CITY           SKY/WX    TMP DP  RH WIND       PRES   REMARKS
Bradley INTL   PTCLDY    31  30  96 N6        30.42S WCI  25
Hartford       CLEAR     33  31  92 NE5       30.43S WCI  29
Danbury        CLOUDY    39  37  92 NE3       30.41R
Wtrbury/Oxford CLEAR     36  30  80 NE6       30.40S WCI  31
Bridgeport     CLEAR     40  34  79 NE8       30.42R WCI  34
Meriden        CLEAR     37  32  82 CALM      30.42R
New Haven      PTCLDY    36  33  89 NE7       30.42R WCI  30
Chester        NOT AVBL
Groton         CLEAR     38  33  82 N5        30.41S WCI  34
Wilimantic     PTCLDY    31  30  96 CALM      30.43S FOG

 IN RI

CITY           SKY/WX    TMP DP  RH WIND       PRES   REMARKS
Providence     PTCLDY    35  32  88 NW3       30.43R
Block Island   PTCLDY    38  35  89 NE6       30.42R WCI  33
Westerly       CLOUDY    37  34  89 CALM      30.42R
 IN MA

CITY           SKY/WX    TMP DP  RH WIND       PRES   REMARKS
Boston         CLOUDY    34  31  88 NW7       30.43R WCI  28
Worcester      CLEAR     31  26  82 N9        30.38S WCI  23
Westfield      PTCLDY    28  27  96 NW3       30.42F FOG
Provincetown   CLOUDY    36  35  96 N7        30.42R WCI  30
Nantucket      PTCLDY    34  32  92 N7        30.39S WCI  28
$$

ANZ330-335-338-340-345-350-353-355-260500-
COASTAL MARINE OBSERVATIONS


STATION/POSITION TIME  SKY/WX   TEMP    WIND        PRES    VSBY  WAVE
                                AIR SEA DIR/SP/G                  HT/PER
                 (UTC)          (F)     (DEG/KT/KT) (MB)    (MI)  (FT/S)
NY HARB ENTRANCE 0250            42 42   70/ 10/ 12 1028.8          3/ 7
20 S FIRE ISLAND 0350            41 40   60/ 14/ 16 1028.6          4/ 5
GREAT SOUTH BAY  NOT AVBL
23 SSW MONTAUK P 0250            40 43              1029.4          4/ 8
15 E BARNEGAT LI 0330               42                N/A           4/ 5
HUDSON CANYON    0250            44 45   60/ 19/ 23 1028.0          5/ 7
KINGS POINT      0342            42 38              1029.1
EXECUTION ROCKS  NOT AVBL
CENTRAL LI SOUND 0330            39     360/  8/  8   N/A           0
EASTERN LI SOUND NOT AVBL
ROBBINS REEF     0348            44      60/ 12/ 14 1029.3
$$


>>>>>>>>>>>>>>>>>>>>>>>>>>>> KEY <<<<<<<<<<<<<<<<<<<<<<<<<<<
>                                                          <
>     SKY/WX - Sky Condition/Present Weather               <
>     TMP    - Temperature in Fahrenheit                   <
>     DP     - Dew Point in Fahrenheit                     <
>     RH     - Relative Humidity in Percent                <
>     WIND   - Direction (from) and Speed in MPH           <
>     PRES   - Mean Sea Level Pressure (inches of Hg)      <
>     WCI    - Wind Chill Index                            <
>     VSB    - VISIBILITY IN MILES                         <
>     HX     - HEAT INDEX                                  <
>     TC     - TEMPERATURE IN CELSIUS                      <
>     VRB    - VARIABLE WIND DIRECTION                     <
>                                                          <
>>>>>>>>>>>>>>>>>>>>>>>>>>>> KEY <<<<<<<<<<<<<<<<<<<<<<<<<<<



USA.gov is the U.S. government's official web portal to all federal, state and local government web resources and services.